Torna al catalogo

STARLINK-35880

AttivoComunicazioniVLEO
NORAD 67187·PAYLOAD·🇺🇸 United States

Lanciato Dec 17, 2025 da Cape Canaveral Space Force Station

Loading…

Prossimi Passaggi (prossime 24 ore)

TLE

AggiornatoSource: CelesTrak SupGP

Epoca: Sep 14, 2026, 23:16 UTC

1 67187C 25303AA  26257.96993056  .00005116  00000+0  18531-3 0  2571
2 67187  43.0022 321.5195 0001375 265.8920 173.1212 15.27575982    15

Traccia STARLINK-35880 in tempo reale con AllMySat

Download on the App Store